Other Public Products
Issued by NWS Grand Forks, ND

Home | Current Version | Previous Version | Graphics & Text | Print | Product List | Glossary On
Versions: 1 2 3 4 5 6 7 8 9 10 11 12 13 14 15 16 17 18 19 20 21 22 23 24 25 26 27 28 29 30 31 32 33 34 35 36 37 38 39 40 41 42 43 44 45 46 47 48 49 50
000
FPUS83 KFGF 281510
OPUFGF
PRAIRIE TO PINES WEATHER ROUNDUP
NATIONAL WEATHER SERVICE EASTERN NORTH DAKOTA/GRAND FORKS ND
900 AM CST FRI NOV 28 2014

 **SATELLITE DATA USED TO AUGMENT SKY COVER AT AUTOMATED STATIONS**
 *****  WEATHER ACROSS EASTERN NORTH DAKOTA  *****

CITY           SKY/WX    TMP DP  RH WIND       PRES   REMARKS
GRAND FORKS    CLOUDY    13   8  81 E7        29.96S WCI   3
GRAND FORKS AF FLURRIES  12   9  85 SE8       29.95F WCI   1
GRAND CITY NWS   N/A     12 N/A N/A SE12        N/A  WCI  -2
BUXTON         NOT AVBL
DEVILS LAKE    CLOUDY    10   0  61 SE13      29.84F WCI  -5
FARGO          CLOUDY    14   7  73 E9        29.93F WCI   2
WAHPETON ARPT  PTSUNNY   12   5  73 SE9       29.92F WCI   0
$$

 *****  WEATHER ACROSS CENTRAL AND WESTERN NORTH DAKOTA  *****

CITY           SKY/WX    TMP DP  RH WIND       PRES   REMARKS
JAMESTOWN      CLOUDY     8   3  80 E13       29.85R WCI  -8
BISMARCK       PTCLDY    11   8  88 E9        29.78F WCI  -2
MINOT          LGT SNOW   8   3  80 E10       29.79F WCI  -6
MINOT AFB      FLURRIES   8   5  87 SE16      29.78F WCI  -9
GARRISON         N/A     11   8  88 E13       29.76R WCI  -4
WILLISTON      CLOUDY    15  11  83 E9        29.66F WCI   3
DICKINSON      MOCLDY    17  14  88 E10       29.63R WCI   5
HETTINGER      CLOUDY    27  23  85 SE6       29.65S WCI  20
$$

 *****  OTHER OBSERVATIONS NORTHEAST NORTH DAKOTA  *****

CITY           SKY/WX    TMP DP  RH WIND       PRES   REMARKS
WALHALLA         N/A      9   9 100 E5        29.98S FOG     WCI   0
LANGDON        CLOUDY     9   5  85 E12       29.89R WCI  -6
CAVALIER       LGT SNOW  10   7  85 E10       29.97F WCI  -3
GRAFTON        CLOUDY    10   7  85 SE12      29.96F FOG     WCI  -4
CANDO          CLOUDY     9   5  85 E12       29.88F WCI  -6
FORT TOTTEN      N/A      9   4  78 SE7       29.95S WCI  -2
ROLLA          CLOUDY     7   3  85 E9        29.85F WCI  -7
RUGBY          CLOUDY     9   5  85 E15       29.84S WCI  -8
 ***** THE ABOVE OBSERVATIONS ARE NON NWS ARE NOT QUALITY
        CONTROLLED AND MAY MIS-REPORT RAIN FOR SNOW...
$$

 *****  OTHER OBSERVATIONS SOUTHEAST NORTH DAKOTA *****

CITY           SKY/WX    TMP DP  RH WIND       PRES   REMARKS
COOPERSTOWN    NOT AVBL
VALLEY CITY    CLOUDY     9   5  85 E13       29.87R WCI  -7
OAKES            N/A      9   7  92 E9        29.85R WCI  -5
GWINNER        CLOUDY    12   5  73 E14       29.87R WCI  -3
BUFFALO        NOT AVBL
WYNDMERE         N/A     10   5  79 SE9         N/A  WCI  -2
 ***** THE ABOVE OBSERVATIONS ARE NON NWS ARE NOT QUALITY
       CONTROLLED AND MAY MIS-REPORT RAIN FOR SNOW...
$$

  *****  WEATHER ACROSS NORTHERN MINNESOTA  *****

CITY           SKY/WX    TMP DP  RH WIND       PRES   REMARKS
FLAG ISLAND    CLOUDY     3   0  85 E3        29.99F
WARROAD        PTCLDY     9   1  72 E8        29.98F WCI  -4
ROSEAU         MOCLDY     9   3  78 E8        29.98F WCI  -4
HALLOCK        LGT SNOW  12   7  79 E7        29.98S WCI   2
THF RVR FALLS  CLOUDY    10   7  85 E12       29.94F WCI  -4
HALSTAD          N/A     12   7  79 SE12        N/A  WCI  -2
FOSSTON        FLURRIES   9   5  85 E7        29.94F WCI  -3
BAUDETTE       CLOUDY     6   0  76 E8        29.98F WCI  -7
WASKISH        LGT SNOW  10   7  85 CALM      29.98S
CROOKSTON      MOCLDY    12   9  85 SE8       29.96F WCI   1
$$
  *****  WEATHER ACROSS CENTRAL AND WEST MINNESOTA  *****

CITY           SKY/WX    TMP DP  RH WIND       PRES   REMARKS
BEMIDJI        LGT SNOW   9   5  83 SE6       29.95S WCI  -1
PARK RAPIDS    CLOUDY     9   5  84 SE9       29.93F WCI  -4
WADENA         FLURRIES   9   3  78 E9        29.93F WCI  -5
DETROIT LAKES  FLURRIES  10   7  85 SE10      29.93F WCI  -3
MOORHEAD       MIX PCPN  14   9  79 E8        29.94F WCI   3
FERGUS FALLS   MOCLDY    10   3  72 SE10      29.95F WCI  -3
ELBOW LAKE     FLURRIES  11   6  79 SE8       29.91F WCI  -1
MORRIS MN      PTSUNNY   12   7  79 SE12      29.91S WCI  -2
STAPLES        FLURRIES   9   5  85 SE6       29.95F WCI  -1
WHEATON        MOCLDY     9   5  85 SE14      29.92F WCI  -8
$$
  *****  WEATHER ELSEWHERE ACROSS MINNESOTA  *****

CITY           SKY/WX    TMP DP  RH WIND       PRES   REMARKS
DULUTH         LGT SNOW  10   6  84 E6        30.00F WCI   0
INTRNTL FALLS  CLOUDY     6   0  76 E7        30.01F WCI  -6
ELY            LGT SNOW   9   3  78 CALM      30.01S
CLOQUET        LGT SNOW   9   5  85 E3        30.01R
BRAINERD       CLOUDY     9   5  84 SE6       29.99R FOG     WCI  -1
HIBBING        LGT SNOW   9   3  77 E6        30.00S WCI  -1
ALEXANDRIA     CLOUDY    10   6  84 E9        29.92S WCI  -3
SAINT CLOUD    CLOUDY    13   7  77 NE6       29.98S HAZE    WCI   4
MINNEAPOLIS    CLOUDY    14   9  80 E12       29.98F WCI   0
$$

  *****  WEATHER ACROSS SOUTH DAKOTA  *****

CITY           SKY/WX    TMP DP  RH WIND       PRES   REMARKS
SIOUX FALLS    CLOUDY    22  18  85 E6        29.81S WCI  14
BROOKINGS      NOT AVBL
WATERTOWN      CLOUDY    15  10  80 SE6       29.79F WCI   6
HURON          CLOUDY    23  18  81 SE6       29.79F WCI  16
SISSETON         N/A      9   5  84 S12       29.88F WCI  -6
ABERDEEN       CLOUDY    17  12  80 NE8       29.82F WCI   7
MITCHELL       MOSUNNY   24  19  81 E5        29.79F WCI  18
PIERRE         CLEAR     19  14  81 E5        29.72F WCI  12
MOBRIDGE       CLOUDY    19  14  81 E6        29.72S WCI  11
RAPID CITY     MOCLDY    37  28  70 S7        29.71R
$$

  *****  SOME WEATHER IN NEARBY STATES *****

CITY           SKY/WX    TMP DP  RH WIND       PRES   REMARKS
GLASGOW MT     CLOUDY    18  16  92 E20       29.55F FOG     WCI   2
GREAT FALLS MT CLEAR     49  33  54 SW30G37   29.50F
CHEYENNE WY    PTCLDY    49  14  24 W10       29.93F
SCOTTSBLUFF NE PTCLDY    46  27  47 NW12      29.83R
OMAHA NE       MOSUNNY   31  24  75 S10       29.89F WCI  22
DES MOINES IA  CLOUDY    26  20  77 S12       29.95F WCI  16
DAVENPORT IA   NOT AVBL
CHICAGO IL     CLOUDY    21  14  74 S14       30.24F WCI   8
EAU CLAIRE WI  CLOUDY    13   8  81 SE7       30.04F WCI   3
LA CROSSE WI   MOSUNNY   19  10  68 SE9       30.07F WCI   8
$$

  *****  SOME NATIONAL WEATHER *****

CITY           SKY/WX    TMP DP  RH WIND       PRES   REMARKS
LA GUARDIA NY  MOSUNNY   34  21  59 NW20G26   30.18R WCI  23
RALEIGH NC     MOSUNNY   38  20  48 N12G17    30.38R
ATLANTA GA     SUNNY     36  22  56 NW8       30.39S
NEW ORLEANS LA SUNNY     50  36  58 E9        30.43S
OKLAHOMA CITY  SUNNY     47  32  56 S15       30.08F
ALBUQUERQUE NM MOSUNNY   36  19  50 N9        30.29R
SALT LAKE CITY CLOUDY    47  22  37 SE10      30.00F
LOS ANGELES CA PTCLDY    57  32  38 E5        29.99R
BOISE ID       CLOUDY    46  36  68 SE9       29.83F
SEATTLE WA     CLOUDY    55  49  80 S16G24    29.54F
$$

*** WEATHER ACROSS MANITOBA...SASKATCHEWAN AND ONTARIO ***
                ***ONTARIO***

CITY           SKY/WX    TMP DP  RH WIND       PRES   REMARKS
GERALDTON      MOSUNNY  -11 -15  84 SW2       30.07S
THUNDER BAY    PTSUNNY    0  -4  85 W3        30.14F
SIOUX LOOKOUT  MOCLDY    -4  -8  84 CALM      30.04S
TORONTO        PTSUNNY   25  14  63 NW12      30.26S WCI  14
BIG TROUT LK   CLEAR    -15 -18  84 NW9       30.04S WCI -33
PICKLE LAKE    PTCLDY    -8 -15  71 SW6       30.02S WCI -21
DRYDEN         CLEAR     -4  -8  84 NE2       30.02S
KENORA         MOCLDY     0  -6  78 E5        29.99F WCI -10
$$
                *** MANITOBA***

CITY           SKY/WX    TMP DP  RH WIND       PRES   REMARKS
BRANDON        FLURRIES   7   1  78 E23       29.91F WCI -14
DAUPHIN        LGT SNOW   5   1  85 NE10      30.02R WCI -10
ISLAND LAKE    MOCLDY   -17 -24  70 W3        30.12S
PILOT MOUND      N/A      7   3  85 E9          N/A  WCI  -7
THE PAS        CLOUDY   -11 -17  77 NE5       30.12F WCI -23
THOMPSON       PTCLDY   -27 -33  75 NW2       30.13F
WINNIPEG       FLURRIES   5  -2  72 NE3       30.04S
LYNN LAKE      PTCLDY   -22 -27  76 NW7       30.07F WCI -39
CHURCHILL      CRYSTALS -15 -20  76 W14       30.02F DRFTSNOWWCI -38
GILLAM         CLEAR    -20 -27  69 W9        30.10F WCI -40
$$
                ***SASKATCHEWAN***

CITY           SKY/WX    TMP DP  RH WIND       PRES   REMARKS
ESTEVAN        LGT SNOW   9   3  78 E18G26    29.72  DRFTSNOWWCI -10
KINDERSLEY     LGT SNOW   7   3  85 E17       29.55F BLWGSNOWWCI -12
LLOYDMINSTER   LGT SNOW  -4  -8  84 NE13      29.71F DRFTSNOWWCI -23
PRINCE ALBERT  LGT SNOW  -2  -8  78 E17G24    29.89F VSB 3/4 WCI -24
REGINA         LGT SNOW  10   9  92 SE18      29.68F DRFTSNOWWCI  -8
YORKTON        LGT SNOW   3   0  85 E13G18    29.85F WCI -14



USA.gov is the U.S. government's official web portal to all federal, state and local government web resources and services.